This demonstration page uses our WeatherBlox Daily Observations layout. Learn more.

Left ArrowRight Arrow

41.12389, -100.76542

Hourly Observations for November 4, 2015

Temp ( °F °C ) Dew Point ( °F °C ) Humidity (%) Winds ( mph kmh ) Pressure ( in mb ) Visibility ( mi km ) Precip ( " mm )
12:53 am 00:53 Clear 58 14.4 43 6.1 58 58 S 16 26 29.66 1004 10 16 0.00 0.00
1:53 am 01:53 Clear 58 14.4 44 6.7 60 60 S 16 26 29.66 1004 10 16 0.00 0.00
2:53 am 02:53 Clear 58 14.4 44 6.7 60 60 S 14 22 29.65 1004 10 16 0.00 0.00
3:53 am 03:53 Clear 54 12.2 44 6.7 69 69 S 9 15 29.66 1004 10 16 0.00 0.00
4:53 am 04:53 Clear 50 10 43 6.1 77 77 E 3 6 29.68 1005 10 16 0.00 0.00
5:53 am 05:53 Clear 53 11.7 44 6.7 72 72 S 14 22 29.70 1006 10 16 0.00 0.00
6:53 am 06:53 Clear 49 9.4 42 5.6 77 77 ESE 6 9 29.72 1006 10 16 0.00 0.00
7:53 am 07:53 Sunny 46 7.8 42 5.6 86 86 SE 8 13 29.70 1006 10 16 0.00 0.00
8:53 am 08:53 Sunny 54 12.2 46 7.8 75 75 SSE 12 19 29.72 1006 10 16 0.00 0.00
9:53 am 09:53 Sunny 58 14.4 47 8.3 67 67 SSW 10 17 29.71 1006 10 16 0.00 0.00
10:53 am 10:53 Sunny 61 16.1 47 8.3 60 60 S 14 22 29.71 1006 10 16 0.00 0.00
11:53 am 11:53 Sunny 67 19.4 46 7.8 47 47 S 9 15 29.69 1005 10 16 0.00 0.00
12:53 pm 12:53 Sunny 69 20.6 44 6.7 41 41 S 9 15 29.66 1004 10 16 0.00 0.00
1:53 pm 13:53 Sunny 71 21.7 45 7.2 39 39 SSE 10 17 29.64 1004 10 16 0.00 0.00
2:53 pm 14:53 Sunny 74 23.3 45 7.2 36 36 SE 6 9 29.61 1003 10 16 0.00 0.00
3:53 pm 15:53 Sunny 76 24.4 40 4.4 27 27 S 18 30 29.59 1002 10 16 0.00 0.00
4:53 pm 16:53 Sunny 71 21.7 49 9.4 46 46 SE 13 20 29.60 1003 10 16 0.00 0.00
5:53 pm 17:53 Clear 67 19.4 52 11.1 59 59 SE 8 13 29.63 1003 10 16 0.00 0.00
6:53 pm 18:53 Mostly Cloudy 53 11.7 42 5.6 66 66 NNE 18 30 29.69 1005 10 16 0.00 0.00
7:45 pm 19:45 Cloudy 52 11.1 42 5.6 69 69 NNE 22 35 29.68 1005 10 16 0.00 0.00
7:53 pm 19:53 Cloudy 52 11.1 42 5.6 69 69 NE 17 28 29.69 1005 10 16 0.00 0.00
8:53 pm 20:53 Cloudy 51 10.6 42 5.6 71 71 NE 14 22 29.67 1005 10 16 0.00 0.00
9:16 pm 21:16 Cloudy with Thunderstorms 54 12.2 45 7.2 72 72 E 6 9 29.68 1005 10 16 0.00 0.03
9:39 pm 21:39 Cloudy with Nearby Thunderstorms 48 8.9 42 5.6 80 80 NW 13 20 29.74 1007 10 16 0.00 0.03
9:53 pm 21:53 Cloudy with Nearby Thunderstorms 48 8.9 42 5.6 80 80 NNW 12 19 29.71 1006 10 16 0.00 0.03
10:05 pm 22:05 Cloudy 48 9 43 6 82 82 N 18 30 29.71 1006 10 16 0.00 0.00
10:53 pm 22:53 Cloudy with Light Rain 47 8.3 43 6.1 86 86 NW 7 11 29.73 1007 10 16 0.01 0.25
11:12 pm 23:12 Cloudy with Light Rain 46 8 43 6 87 87 NNW 8 13 29.77 1008 10 16 0.00 0.00
11:27 pm 23:27 Cloudy with Light Rain 46 8 43 6 87 87 N 13 20 29.68 1005 10 16 0.00 0.00
11:44 pm 23:44 Partly Cloudy 45 7 43 6 93 93 N 9 15 29.71 1006 10 16 0.00 0.00
11:53 pm 23:53 Mostly Cloudy 44 6.7 42 5.6 93 93 NNE 7 11 29.66 1004 10 16 0.02 0.51

Powered by AerisWeather